TimeEDT,TemperatureF,Dew PointF,Humidity,Sea Level PressureIn,VisibilityMPH,Wind Direction,Wind SpeedMPH,Gust SpeedMPH,PrecipitationIn,Events,Conditions,WindDirDegrees,DateUTC
12:53 AM,41.0,35.1,79,30.00,10.0,Calm,Calm,-,N/A,,Mostly Cloudy,0,2012-10-16 04:53:00
1:53 AM,39.0,36.0,89,29.99,10.0,Calm,Calm,-,N/A,,Clear,0,2012-10-16 05:53:00
2:53 AM,37.9,35.1,89,29.99,10.0,Calm,Calm,-,N/A,,Clear,0,2012-10-16 06:53:00
3:53 AM,36.0,34.0,93,29.99,9.0,Calm,Calm,-,N/A,,Clear,0,2012-10-16 07:53:00
4:16 AM,35.6,33.8,93,29.98,2.0,Calm,Calm,-,N/A,,Clear,0,2012-10-16 08:16:00
4:22 AM,35.6,33.8,93,29.98,3.0,Calm,Calm,-,N/A,,Clear,0,2012-10-16 08:22:00
4:41 AM,33.8,33.8,100,29.98,2.0,Calm,Calm,-,N/A,,Clear,0,2012-10-16 08:41:00
4:49 AM,35.6,33.8,93,29.98,1.8,Calm,Calm,-,N/A,,Clear,0,2012-10-16 08:49:00
4:53 AM,34.0,33.1,96,29.99,2.0,Calm,Calm,-,N/A,,Clear,0,2012-10-16 08:53:00
5:15 AM,35.6,33.8,93,29.99,1.8,Calm,Calm,-,N/A,,Clear,0,2012-10-16 09:15:00
5:18 AM,35.6,33.8,93,29.99,3.0,Calm,Calm,-,N/A,,Clear,0,2012-10-16 09:18:00
5:24 AM,35.6,33.8,93,29.98,1.8,Calm,Calm,-,N/A,,Clear,0,2012-10-16 09:24:00
5:34 AM,33.8,33.8,100,29.98,0.8,Calm,Calm,-,N/A,,Clear,0,2012-10-16 09:34:00
5:42 AM,33.8,33.8,100,29.99,2.0,Calm,Calm,-,N/A,,Clear,0,2012-10-16 09:42:00
5:44 AM,33.8,33.8,100,29.98,2.5,Calm,Calm,-,N/A,,Partly Cloudy,0,2012-10-16 09:44:00
5:47 AM,33.8,33.8,100,29.98,1.5,Calm,Calm,-,N/A,,Partly Cloudy,0,2012-10-16 09:47:00
5:50 AM,33.8,32.0,93,29.99,0.8,Calm,Calm,-,N/A,,Mist,0,2012-10-16 09:50:00
5:53 AM,33.1,32.0,96,30.00,0.5,Calm,Calm,-,N/A,Fog,Fog,0,2012-10-16 09:53:00
6:53 AM,32.0,30.9,96,30.01,0.2,Calm,Calm,-,N/A,Fog,Fog,0,2012-10-16 10:53:00
7:22 AM,32.0,30.2,93,30.00,1.2,Calm,Calm,-,N/A,,Partly Cloudy,0,2012-10-16 11:22:00
7:26 AM,32.0,30.2,93,30.00,2.5,Calm,Calm,-,N/A,,Partly Cloudy,0,2012-10-16 11:26:00
7:33 AM,30.2,30.2,100,30.00,7.0,Calm,Calm,-,N/A,,Partly Cloudy,0,2012-10-16 11:33:00
7:45 AM,30.2,30.2,100,29.99,2.0,Calm,Calm,-,N/A,,Partly Cloudy,0,2012-10-16 11:45:00
8:05 AM,32.0,30.2,93,30.00,4.0,Calm,Calm,-,N/A,,Clear,0,2012-10-16 12:05:00
8:53 AM,34.0,34.0,100,30.02,6.0,Calm,Calm,-,N/A,,Clear,0,2012-10-16 12:53:00
9:53 AM,43.0,41.0,93,30.02,9.0,Calm,Calm,-,N/A,,Clear,0,2012-10-16 13:53:00
10:53 AM,48.0,37.9,68,30.01,10.0,Variable,4.6,-,N/A,,Clear,0,2012-10-16 14:53:00
11:53 AM,51.1,39.0,63,29.98,10.0,SSW,6.9,-,N/A,,Clear,200,2012-10-16 15:53:00
12:53 PM,54.0,37.0,53,29.97,10.0,SSW,6.9,-,N/A,,Clear,200,2012-10-16 16:53:00
1:53 PM,57.0,39.0,51,29.93,10.0,SSE,8.1,-,N/A,,Clear,160,2012-10-16 17:53:00
2:53 PM,59.0,37.9,46,29.90,10.0,SSW,8.1,16.1,N/A,,Clear,200,2012-10-16 18:53:00
3:53 PM,60.1,39.0,46,29.86,10.0,South,9.2,17.3,N/A,,Clear,180,2012-10-16 19:53:00
4:53 PM,62.1,37.9,41,29.83,10.0,South,9.2,-,N/A,,Clear,170,2012-10-16 20:53:00
5:53 PM,61.0,39.0,44,29.82,10.0,South,10.4,-,N/A,,Clear,180,2012-10-16 21:53:00
6:53 PM,59.0,39.9,49,29.79,10.0,South,6.9,-,N/A,,Clear,170,2012-10-16 22:53:00
7:53 PM,57.0,39.9,53,29.78,10.0,SSE,4.6,-,N/A,,Clear,160,2012-10-16 23:53:00
8:53 PM,57.0,39.9,53,29.77,10.0,South,10.4,-,N/A,,Clear,170,2012-10-17 00:53:00
9:53 PM,57.0,39.9,53,29.77,10.0,South,9.2,-,N/A,,Mostly Cloudy,170,2012-10-17 01:53:00
10:53 PM,57.0,39.9,53,29.76,10.0,South,12.7,-,0.00,,Mostly Cloudy,170,2012-10-17 02:53:00
11:53 PM,55.9,41.0,57,29.76,10.0,South,10.4,-,0.00,,Overcast,180,2012-10-17 03:53:00